CW0728 Weather Reports


time (UTC)temp
F
wind
direction
speed
knots
gust
knots
rain 1hr
in
rain 24hr
in
rain mn
in
humidity
%
barometer
mb
20260904003041 64 106 0.0 0.0 0.00 0.15 0.15 90 1010.4
20260904001520 65 106 0.0 0.0 0.00 0.15 0.15 89 1010.4
20260904000005 65 106 0.0 0.0 0.00 0.15 0.15 89 1010.2
20260903234542 65 80 0.0 0.0 0.00 0.15 0.15 88 1010.1
20260903233017 66 78 0.0 0.0 0.00 0.15 0.15 88 1010.3
20260903231556 66 78 0.0 0.0 0.00 0.15 0.15 86 1010.6
20260903230041 66 78 0.0 0.0 0.00 0.15 0.15 86 1010.5
20260903224517 67 78 0.0 0.0 0.00 0.15 0.15 85 1010.5
20260903223053 68 78 0.0 0.0 0.00 0.15 0.15 84 1010.5
20260903221535 68 78 0.0 0.0 0.00 0.15 0.15 83 1010.5
20260903220016 69 71 0.0 0.0 0.00 0.15 0.15 81 1010.7
20260903214605 69 103 0.0 0.0 0.00 0.15 0.15 82 1010.6
20260903213031 67 94 0.0 0.0 0.00 0.15 0.15 87 1010.6
20260903211515 67 58 0.0 0.0 0.00 0.15 0.15 86 1010.7
20260903210047 67 103 0.0 0.0 0.00 0.15 0.15 87 1010.6
20260903204520 66 94 0.0 0.0 0.00 0.15 0.15 90 1010.7
20260903203057 65 80 0.0 0.0 0.00 0.15 0.15 89 1010.9
20260903201543 65 92 0.0 0.0 0.00 0.15 0.15 89 1010.9
20260903200013 65 94 0.0 0.0 0.00 0.15 0.15 88 1010.9
20260903194554 65 57 0.0 0.0 0.00 0.15 0.15 90 1010.9
20260903193023 65 80 0.0 0.0 0.00 0.15 0.15 91 1011.0
20260903191509 65 63 0.0 0.0 0.00 0.15 0.15 90 1011.3
20260903190044 65 138 0.0 0.0 0.00 0.15 0.15 90 1011.6
20260903184522 65 96 0.0 0.0 0.00 0.15 0.15 90 1011.8
20260903183059 66 122 0.0 0.0 0.00 0.15 0.15 90 1011.8
20260903181535 66 89 0.0 0.0 0.00 0.15 0.15 90 1011.9
20260903180013 65 98 0.0 0.0 0.00 0.15 0.15 91 1012.0
20260903174546 65 136 0.0 0.0 0.00 0.15 0.15 91 1011.8
20260903173031 64 82 0.0 2.6 0.00 0.15 0.15 93 1011.8
20260903171510 64 204 0.0 0.0 0.00 0.15 0.15 93 1012.3
20260903170052 64 159 0.0 3.5 0.00 0.15 0.15 93 1012.1
20260903164517 64 118 0.0 0.0 0.00 0.15 0.15 94 1012.1
20260903163052 63 79 0.0 0.0 0.00 0.15 0.15 94 1012.5
20260903161535 63 148 0.0 0.0 0.00 0.15 0.15 94 1012.7
20260903160011 63 182 0.0 0.0 0.00 0.15 0.15 95 1012.9
20260903154553 63 169 0.0 0.0 0.01 0.15 0.15 95 1013.0
20260903153020 62 198 0.0 0.0 0.01 0.15 0.15 95 1013.3
20260903151606 63 173 0.0 0.9 0.01 0.15 0.15 95 1013.4
20260903150032 63 171 0.0 0.0 0.02 0.15 0.15 95 1013.6
20260903144521 62 117 0.0 2.6 0.01 0.14 0.14 95 1013.8
20260903143009 62 143 0.0 0.0 0.01 0.14 0.14 95 1013.9
20260903141546 62 114 0.0 0.0 0.02 0.14 0.14 95 1013.8
20260903140019 61 133 0.0 0.0 0.01 0.13 0.13 95 1013.9
20260903134604 61 167 0.0 0.9 0.01 0.13 0.13 94 1014.0
20260903133035 61 130 0.0 0.0 0.03 0.13 0.13 94 1013.9
20260903131517 61 156 0.0 0.0 0.02 0.12 0.12 94 1014.1
20260903130055 61 159 0.0 0.0 0.02 0.12 0.12 94 1014.2
20260903124541 61 116 0.0 0.0 0.02 0.12 0.12 93 1014.4
20260903123017 60 146 0.0 0.0 0.00 0.10 0.10 93 1014.7
20260903121552 60 213 0.0 0.0 0.00 0.10 0.10 93 1014.8
20260903120028 60 226 0.0 0.0 0.00 0.10 0.10 93 1014.9
20260903114511 60 158 0.0 0.0 0.00 0.10 0.10 93 1014.8
20260903113045 60 197 0.0 0.0 0.00 0.10 0.10 93 1014.6
20260903111530 60 142 0.0 0.9 0.00 0.10 0.10 93 1014.8
20260903110059 60 165 0.0 0.0 0.01 0.10 0.10 92 1014.6
20260903104537 60 206 0.0 0.0 0.02 0.10 0.10 92 1014.8
20260903103007 61 207 0.0 1.7 0.08 0.10 0.10 93 1015.0
20260903101549 61 170 0.0 0.0 0.10 0.10 0.10 93 1014.9
20260903100031 62 170 0.0 0.0 0.09 0.09 0.09 92 1015.0
20260903094519 62 132 0.0 0.0 0.08 0.08 0.08 92 1015.2
20260903093103 62 167 0.0 0.0 0.02 0.02 0.02 92 1015.3
20260903091536 62 167 0.0 0.0 0.00 0.00 0.00 92 1015.6
20260903090004 62 167 0.0 0.0 0.00 0.00 0.00 92 1015.5
20260903084546 62 167 0.0 0.0 0.00 0.00 0.00 93 1015.0
20260903083029 62 147 0.0 2.6 0.00 0.00 0.00 93 1015.0
20260903081502 61 121 0.0 0.0 0.00 0.00 0.00 93 1015.1
20260903080040 61 83 0.0 0.0 0.00 0.00 0.00 94 1015.3
20260903074516 61 91 0.0 0.0 0.00 0.00 0.00 93 1015.2
20260903073051 61 91 0.0 0.0 0.00 0.00 0.00 93 1015.5
20260903071531 61 91 0.0 0.0 0.00 0.00 0.00 93 1015.7
20260903070020 61 91 0.0 0.0 0.00 0.00 0.00 93 1016.0
20260903064552 61 91 0.0 0.0 0.00 0.00 0.00 93 1016.5
20260903063022 61 91 0.0 0.0 0.00 0.00 0.00 93 1016.8
20260903061559 61 91 0.0 0.0 0.00 0.00 0.00 93 1016.9
20260903060032 61 90 0.0 0.0 0.00 0.00 0.00 93 1017.2
20260903054512 61 99 0.0 0.0 0.00 0.00 0.00 93 1017.1
20260903053043 61 103 0.0 0.0 0.00 0.00 0.00 92 1017.4
20260903051528 61 101 0.0 0.0 0.00 0.00 0.00 92 1017.4
20260903050014 61 92 0.0 0.0 0.00 0.00 0.00 92 1017.5
20260903044546 61 93 0.0 0.0 0.00 0.00 0.00 92 1017.6
20260903043015 61 96 0.0 0.0 0.00 0.00 0.00 91 1017.8
20260903041554 61 99 0.0 0.0 0.00 0.00 0.00 91 1018.1
20260903040035 61 100 0.0 0.0 0.00 0.00 0.00 91 1018.4
20260903034512 61 100 0.0 0.0 0.00 0.00 0.00 91 1018.4
20260903033052 61 100 0.0 0.0 0.00 0.00 0.00 91 1018.6
20260903031534 61 100 0.0 0.0 0.00 0.00 0.00 91 1018.6
20260903030134 61 101 0.0 0.0 0.00 0.00 0.00 91 1018.6
20260903024537 61 104 0.0 0.0 0.00 0.00 0.00 91 1018.6
20260903023022 61 105 0.0 0.0 0.00 0.00 0.00 90 1019.0
20260903021550 61 105 0.0 0.0 0.00 0.00 0.00 90 1018.9
20260903020057 61 105 0.0 0.0 0.00 0.00 0.00 90 1019.0
20260903014513 61 105 0.0 0.0 0.00 0.00 0.00 90 1019.1
20260903013048 61 161 0.0 0.0 0.00 0.00 0.00 90 1019.1
20260903011524 60 103 0.0 0.0 0.00 0.00 0.00 90 1018.9
20260903010009 60 173 0.0 0.0 0.00 0.00 0.00 89 1019.1
20260903004548 60 170 0.0 0.0 0.00 0.00 0.00 89 1018.9